GFSSW_sfc_temp_021.txt.gz
Temp
63 63 64 64 64 64 64 65 65 64 64 65 65 65 65 65 66 77 78 80 79 72 70 82 82 82 82 78 78 78 69 68 70 69 73 75 73 74 74 75 72 74 74 72 76
61 62 63 63 63 63 64 64 64 64 64 64 64 64 65 65 80 80 78 74 73 72 81 80 80 80 79 77 76 74 69 71 75 76 74 75 74 75 69 71 72 72 74 69 71
60 60 61 62 62 63 63 63 63 63 63 63 64 64 64 69 78 82 72 73 73 73 82 83 82 80 75 77 76 74 69 75 75 76 75 74 72 76 70 70 76 75 76 68 68
60 60 59 60 61 62 63 63 63 63 63 63 63 64 64 81 69 80 71 72 72 82 81 80 79 74 73 71 77 68 75 74 73 72 70 70 75 71 71 75 78 81 83 73 68
60 59 59 59 59 61 62 62 63 63 62 63 63 64 74 77 79 78 69 71 80 79 79 78 77 76 71 75 73 68 74 73 74 70 69 71 68 71 73 79 81 76 72 73 69
60 60 59 59 59 60 61 62 62 62 62 63 63 63 77 70 79 82 79 76 81 79 79 79 78 78 74 72 70 72 71 72 73 71 70 65 69 67 74 79 78 77 71 72 71
60 60 59 59 59 60 60 61 61 61 62 63 64 74 76 77 82 82 78 78 78 80 77 77 78 74 74 71 72 69 64 72 72 70 67 67 62 64 73 74 74 75 73 72 72
61 60 59 59 59 59 60 61 61 61 62 64 64 77 74 76 83 77 79 76 78 78 77 76 77 74 72 71 69 65 66 63 73 68 66 65 62 76 82 76 70 73 75 72 72
60 59 60 59 59 59 59 60 60 62 65 65 72 76 74 70 73 79 80 76 76 76 75 75 75 72 67 66 65 67 61 65 68 68 65 62 65 76 76 72 71 75 77 76 73
60 59 59 59 59 59 59 61 64 64 70 74 77 70 73 71 72 74 77 77 73 72 70 70 71 67 67 66 56 63 65 67 65 68 64 61 60 70 75 74 72 72 75 77 77
59 60 60 59 59 60 63 75 74 71 71 73 73 74 71 70 73 70 74 72 73 70 64 68 64 60 68 70 68 67 63 62 67 71 62 62 63 67 72 72 71 73 75 76 76
60 59 59 60 60 60 63 71 66 62 63 74 72 69 71 72 67 68 73 67 65 61 68 61 57 68 72 67 66 65 60 60 67 69 58 59 58 65 68 69 70 71 72 75 77
60 59 59 59 60 62 67 65 64 65 61 68 69 68 71 68 67 69 69 68 64 62 65 60 67 64 64 64 58 60 58 60 60 65 58 54 53 59 66 68 69 71 72 73 74
59 59 59 59 60 64 65 63 65 65 57 63 62 65 63 65 60 66 70 68 64 60 64 63 68 64 62 58 62 54 65 63 58 55 50 57 46 60 65 67 66 69 70 73 72
59 59 59 60 60 62 60 64 65 64 42 61 58 65 62 62 61 58 65 63 60 60 60 62 61 55 54 58 63 58 55 56 56 52 52 53 49 57 59 58 60 63 67 75 75
58 58 57 61 62 63 62 63 62 54 41 57 60 56 55 57 57 58 59 64 62 60 59 58 58 58 61 54 56 56 54 53 51 52 41 53 53 54 59 60 66 69 71 72 68
58 58 57 65 62 62 63 62 51 44 59 57 57 56 57 56 55 55 52 52 53 47 51 58 56 59 56 53 53 53 52 46 43 42 41 60 53 57 64 65 67 69 72 69 66
58 57 57 64 67 63 61 56 41 54 58 60 57 55 53 59 55 54 53 51 56 57 54 52 49 56 56 57 59 50 54 46 36 40 45 47 45 56 67 71 70 71 70 65 63
57 55 55 60 62 61 53 42 49 55 62 60 57 52 55 56 56 55 54 56 60 57 50 51 52 51 55 53 58 50 43 55 45 37 37 50 58 66 63 64 65 62 59 59 62
55 53 53 59 57 51 41 41 54 62 63 59 53 58 53 57 51 53 56 63 58 61 63 60 48 53 45 50 51 51 53 44 45 34 34 47 50 53 57 57 60 58 57 61 63
54 47 52 55 52 43 33 35 50 59 60 55 54 55 58 57 60 56 56 64 64 61 60 58 53 49 45 44 50 43 44 45 46 47 39 37 47 62 60 60 61 60 58 60 65
51 43 51 53 41 39 34 42 48 47 54 52 55 54 55 58 55 56 55 61 67 60 50 56 49 44 51 58 53 54 54 51 42 41 44 43 45 61 64 64 63 60 61 65 64
47 46 49 50 38 35 40 43 48 48 49 48 46 51 53 48 43 52 56 62 59 54 51 50 41 36 42 46 44 44 49 49 52 48 41 37 43 63 66 65 63 62 64 62 62
48 40 41 43 46 44 39 40 40 48 46 48 41 42 40 37 44 41 46 55 56 53 48 50 41 39 38 47 52 45 47 48 47 41 41 43 48 57 60 61 64 65 66 67 64
46 44 43 34 37 40 42 42 40 39 46 47 41 38 37 34 36 35 41 46 49 44 45 45 36 42 43 46 49 46 45 45 43 45 42 46 48 55 59 61 63 65 64 63 63
40 43 41 41 47 41 39 38 38 44 45 44 41 44 41 37 40 42 44 42 41 38 40 43 31 35 32 39 41 39 44 46 45 45 47 47 45 58 60 62 61 61 61 60 61
44 43 35 36 38 38 38 40 41 46 49 51 49 45 43 42 47 50 52 50 45 38 34 34 33 31 28 38 36 29 35 40 44 49 48 42 51 58 57 58 58 59 61 59 60

GFSSW_sfc_temp_024.txt.gz
Temp
62 62 63 64 63 64 64 65 64 64 64 64 65 65 65 65 66 74 74 79 77 72 70 80 78 78 77 72 71 69 56 55 61 60 62 67 64 67 64 61 63 67 62 62 67
60 60 61 62 63 63 63 64 64 63 63 64 64 64 65 65 74 74 77 73 72 71 78 76 75 76 69 70 68 62 56 61 66 67 63 67 66 65 59 61 62 63 64 65 63
60 60 60 60 60 62 63 63 63 63 63 63 63 64 64 66 72 76 72 73 72 72 78 79 78 75 68 70 67 64 58 66 69 68 68 66 65 68 61 59 64 64 65 61 59
61 60 60 60 60 61 62 62 62 63 63 63 63 63 64 74 62 75 71 72 71 77 77 76 74 67 64 64 71 60 68 69 67 66 63 62 66 64 65 64 67 68 69 62 60
60 60 60 59 60 61 61 62 62 62 62 62 63 63 70 71 73 74 68 70 75 76 75 73 70 68 63 67 67 62 65 68 68 64 62 65 61 61 63 68 72 70 66 61 62
61 60 60 59 59 60 61 61 62 62 62 62 63 62 70 64 77 78 76 72 77 75 74 73 71 70 66 66 63 63 64 65 67 66 64 60 59 60 63 68 68 69 63 63 62
61 61 60 60 60 60 60 61 61 61 62 63 64 69 72 70 80 78 76 73 74 75 72 74 72 67 67 63 67 62 56 62 64 64 61 61 54 56 66 64 65 66 65 63 63
60 59 59 60 60 59 60 60 60 61 62 63 64 71 66 74 76 75 77 72 74 75 72 72 70 67 64 64 63 57 56 50 61 64 59 58 49 62 67 65 62 62 62 63 63
59 59 59 59 59 59 59 60 60 61 64 65 66 68 66 70 71 75 75 71 72 71 69 74 67 62 61 54 52 56 48 52 58 63 57 54 50 62 63 61 60 60 62 64 64
59 59 59 59 59 60 60 61 64 64 65 72 74 64 69 67 69 72 72 72 67 66 64 63 60 55 54 53 45 48 50 55 54 58 56 51 52 60 63 61 61 61 63 64 66
60 59 59 59 60 60 60 65 67 62 68 65 66 67 69 68 69 67 70 69 67 62 54 59 52 50 56 59 60 59 56 53 60 64 55 54 55 59 63 61 60 63 66 66 66
60 60 59 59 60 61 59 64 57 57 52 69 69 69 70 69 63 65 70 61 59 53 58 54 49 59 62 61 56 54 52 53 59 60 55 53 52 57 59 62 64 64 65 66 62
60 59 59 59 60 61 62 60 64 63 53 62 67 67 66 65 62 62 64 61 56 53 56 53 57 63 59 56 55 55 50 53 52 56 49 46 44 49 55 61 63 64 66 66 61
60 59 59 59 58 62 60 63 64 63 48 57 60 62 62 62 57 65 67 62 58 54 55 55 62 60 57 54 56 49 56 54 52 46 41 49 36 49 53 55 56 61 62 60 60
59 59 59 60 58 60 60 63 62 57 34 59 56 63 61 57 56 56 61 58 55 54 53 52 53 51 51 54 57 52 52 48 46 43 40 43 38 46 55 52 56 59 61 63 61
58 59 58 60 60 62 62 61 57 47 34 54 57 53 52 54 54 55 54 58 56 53 54 54 55 51 52 51 51 50 46 45 42 40 31 42 42 42 48 54 55 58 60 63 58
58 58 56 65 59 62 60 57 45 38 56 53 52 54 52 52 52 51 49 46 45 40 42 49 51 51 51 45 46 46 42 30 28 26 31 47 41 50 52 55 58 60 62 58 56
57 57 55 60 64 60 56 47 34 50 53 59 55 54 50 55 52 50 48 44 49 48 44 43 41 50 51 50 46 42 45 31 25 30 40 39 34 45 59 60 59 60 65 57 53
57 55 53 56 59 56 45 32 39 50 56 55 56 51 50 52 52 49 46 48 52 51 44 44 46 47 49 49 52 43 37 46 34 27 27 42 45 53 53 56 56 59 55 51 52
54 52 52 59 56 49 39 37 44 56 56 55 47 52 47 50 47 49 48 52 51 55 59 51 43 47 42 45 45 44 47 35 34 22 21 41 39 45 48 56 54 50 51 51 51
53 49 53 59 54 44 34 38 48 55 55 49 47 46 48 47 51 50 51 57 57 56 57 51 46 41 42 38 41 36 37 39 41 36 31 33 40 49 50 51 52 52 54 52 52
52 43 51 54 41 41 37 43 49 50 53 51 48 46 44 46 45 43 43 47 57 53 47 50 44 37 45 51 47 47 47 44 38 36 33 38 41 56 53 55 54 53 54 54 54
47 47 50 51 38 38 38 42 47 47 48 48 47 48 49 44 39 42 43 52 56 48 43 46 36 28 36 45 41 40 44 46 45 41 38 34 40 58 62 55 53 52 52 53 53
44 40 42 44 47 44 41 38 39 47 46 48 46 47 42 38 44 39 40 45 47 50 45 45 37 35 30 38 45 39 43 43 44 37 37 39 43 52 56 58 61 62 56 53 52
42 41 43 35 37 40 44 43 40 37 47 50 43 44 38 34 39 37 39 41 44 46 41 37 31 34 37 40 41 40 40 40 37 38 35 41 43 50 55 57 59 59 60 56 56
38 38 38 37 39 37 38 37 39 43 45 43 41 45 43 38 41 42 39 40 40 38 41 38 30 32 30 35 36 33 38 40 40 40 40 41 40 53 56 58 57 58 59 58 56
44 43 36 35 36 34 35 38 37 40 42 45 45 44 43 44 46 49 51 50 47 41 35 33 31 29 27 33 32 27 33 36 40 44 43 37 45 52 52 54 55 57 59 58 55

GFSSW_sfc_temp_030.txt.gz
Temp
61 61 61 62 62 63 63 63 63 63 63 63 64 64 64 64 64 65 64 73 71 70 69 69 66 66 65 61 62 58 48 43 49 51 55 57 56 58 59 56 56 62 56 57 57
61 61 61 61 61 62 62 63 63 63 63 63 63 63 63 64 63 63 72 72 72 70 69 67 63 63 59 58 59 54 44 50 56 55 55 58 57 58 55 54 55 57 54 55 57
61 61 61 61 61 61 62 62 62 62 62 62 62 63 62 61 62 66 71 72 72 70 71 69 67 65 56 57 56 53 50 55 60 60 61 58 55 59 55 54 58 59 57 53 52
61 61 61 61 61 61 61 62 62 62 62 62 62 62 62 61 55 68 70 71 70 70 70 66 64 59 55 55 59 51 57 59 61 61 59 57 56 56 56 64 63 62 59 53 53
61 60 60 60 61 61 61 62 62 62 62 62 62 62 61 57 62 68 68 68 67 68 67 65 61 59 54 55 55 54 56 60 60 60 58 58 58 56 56 59 62 61 56 54 55
60 60 60 60 60 61 61 61 62 61 61 62 62 62 58 53 69 68 67 65 67 65 63 63 61 61 57 57 55 55 56 58 58 59 58 57 54 55 62 57 59 59 57 54 56
60 60 59 59 60 61 61 61 61 61 61 62 63 62 58 62 68 66 67 63 64 64 62 63 62 58 56 55 59 57 54 54 58 57 56 55 52 51 65 57 58 58 57 56 56
60 59 59 59 60 60 61 61 61 61 61 62 63 57 57 66 63 65 66 64 66 66 64 63 64 60 55 58 56 49 47 44 53 53 54 57 52 58 60 56 57 56 55 55 57
60 59 59 60 60 60 60 60 60 61 62 63 56 55 56 67 63 67 66 63 64 64 64 69 62 56 54 48 44 41 40 41 49 55 53 50 49 57 57 53 55 54 55 56 58
60 59 59 60 60 60 60 61 60 61 62 64 65 53 60 61 63 65 64 66 61 60 59 56 51 47 45 44 38 39 38 42 45 49 46 45 48 57 58 54 53 54 53 53 58
60 60 60 60 60 61 57 55 57 55 55 56 56 57 60 62 63 62 64 63 60 55 47 49 44 43 52 49 54 44 42 41 48 52 47 47 50 55 60 55 52 57 59 59 56
60 60 60 60 60 60 54 51 49 50 47 56 57 58 62 61 57 58 64 56 53 46 48 44 41 52 52 50 47 46 45 46 52 55 47 49 50 55 57 61 61 57 59 61 64
60 59 59 59 59 57 52 51 56 53 43 51 55 56 58 61 56 57 60 54 49 46 45 47 49 53 51 47 46 45 43 46 46 48 45 44 45 45 51 57 62 64 63 64 65
59 59 59 59 56 52 51 55 55 52 37 47 52 55 56 58 52 56 57 56 47 47 45 44 53 52 46 45 48 44 49 49 46 39 38 42 38 44 48 51 55 58 61 60 60
58 58 59 60 52 52 56 55 53 50 27 50 51 59 55 52 51 51 54 52 46 46 45 46 46 44 44 49 49 48 48 46 41 37 34 37 34 43 51 49 53 61 60 60 62
58 58 58 57 53 54 55 52 52 41 31 46 49 47 47 48 49 49 49 53 50 45 45 47 47 48 48 47 47 46 42 40 35 35 31 39 40 39 41 50 51 57 61 62 63
57 57 56 60 53 57 56 55 41 35 48 45 45 46 45 45 45 46 44 42 42 37 36 40 43 47 49 44 44 44 39 29 26 23 29 41 36 48 49 51 53 57 60 62 63
56 57 56 58 59 57 55 45 33 44 43 49 48 45 44 46 46 44 39 38 41 39 36 36 39 44 46 48 43 41 43 29 20 28 38 32 31 47 51 56 56 57 60 61 60
56 55 54 55 56 55 48 37 41 46 49 47 48 41 40 45 45 40 37 38 43 44 40 36 40 43 45 45 49 38 35 47 30 15 22 39 41 51 47 50 50 53 55 52 50
51 52 52 56 56 51 42 41 44 49 49 49 43 44 38 42 45 44 42 42 43 45 51 46 39 45 40 41 42 43 44 32 30 19 18 30 32 42 48 51 52 50 50 54 52
50 46 50 55 54 45 37 40 44 51 51 47 45 44 42 43 46 45 46 45 47 47 47 46 42 41 39 37 40 35 35 36 37 33 32 30 36 55 53 47 49 52 50 48 47
47 40 51 55 42 42 40 45 47 48 50 49 48 47 44 45 43 43 43 49 48 48 44 44 38 33 38 49 43 41 41 42 35 33 36 37 38 58 57 56 49 48 50 49 49
43 44 51 50 38 39 41 43 46 44 46 45 44 47 47 43 38 43 45 52 51 48 44 42 34 29 30 35 40 37 43 43 44 41 36 31 36 57 57 56 53 50 56 58 56
39 36 43 45 46 41 41 41 41 46 44 45 45 46 43 41 45 41 43 45 46 46 49 46 38 33 30 36 39 34 37 39 40 34 35 36 40 48 52 52 55 56 58 59 57
36 33 39 34 39 40 42 41 39 39 44 46 41 42 40 36 38 37 41 43 44 46 43 43 33 38 37 39 41 41 40 41 39 41 36 38 38 44 50 53 55 57 56 54 53
33 32 35 33 36 36 37 37 37 39 39 38 36 34 34 32 33 30 31 32 33 35 34 37 32 34 32 35 35 33 37 39 39 40 40 41 40 51 53 54 53 54 55 54 55
35 38 36 31 29 28 28 34 35 34 37 38 34 30 29 34 35 37 38 37 36 32 32 32 31 30 28 33 32 28 33 36 38 41 40 34 43 49 48 49 50 52 52 49 45

GFSSW_sfc_temp_033.txt.gz
Temp
62 62 62 62 62 62 63 63 63 63 63 63 63 63 63 63 64 62 62 72 70 70 70 66 64 63 62 59 59 54 47 42 47 48 53 54 53 56 56 54 55 60 56 54 53
61 62 62 62 62 62 62 62 62 62 62 62 63 63 63 63 60 61 71 72 72 70 67 65 61 62 57 56 56 52 43 48 53 53 54 56 55 56 53 53 54 57 53 52 53
61 62 62 62 62 62 62 62 62 62 62 62 62 62 62 59 60 65 72 72 71 70 68 67 64 62 54 54 54 51 49 52 57 58 58 57 54 57 53 53 57 59 59 52 50
61 61 61 61 61 62 62 62 62 62 62 62 62 62 62 59 55 66 70 71 70 69 67 64 61 56 52 52 55 49 55 56 59 59 56 54 56 54 55 64 62 61 56 51 50
60 60 60 60 61 61 62 62 62 62 61 62 62 62 60 57 62 66 67 68 66 65 64 62 58 56 52 52 52 51 53 57 57 57 56 56 56 55 56 59 60 59 56 53 53
60 60 60 60 60 61 62 62 62 61 61 62 62 62 58 54 67 66 64 64 64 63 61 61 59 59 54 54 53 52 54 55 55 56 55 56 54 52 63 54 58 58 56 53 53
60 60 60 60 60 61 61 61 61 61 61 62 62 60 55 62 65 64 65 63 64 63 61 61 62 57 54 52 56 53 51 52 52 54 54 53 52 50 64 56 58 56 56 54 54
60 59 59 60 60 60 61 61 61 61 61 61 62 55 55 65 61 63 63 62 64 64 64 62 63 59 55 56 54 48 44 42 52 50 52 55 49 60 59 56 57 56 52 54 56
59 59 59 60 60 60 60 61 60 61 61 62 55 53 55 65 61 64 63 63 63 61 60 67 61 55 51 45 43 39 38 39 45 55 53 50 47 55 53 51 54 54 54 54 55
59 59 59 60 60 60 61 61 60 61 61 62 63 52 59 58 60 62 60 63 58 58 57 54 50 46 42 42 37 38 35 39 41 48 45 44 45 55 58 53 56 56 55 56 57
60 60 60 60 60 61 57 54 55 54 53 55 55 54 58 58 61 59 61 60 57 53 47 47 43 42 50 47 53 42 40 39 49 52 44 45 49 53 58 56 52 55 58 61 62
60 60 60 60 60 60 54 51 47 49 46 55 54 56 59 60 55 56 62 55 51 46 46 42 40 52 48 47 45 44 43 42 50 53 44 46 47 54 56 57 60 61 61 59 63
60 59 59 59 59 56 51 50 54 51 42 50 53 53 56 59 53 55 59 52 48 44 44 44 48 51 48 45 44 40 39 45 44 46 44 41 43 46 52 55 60 63 65 65 62
59 59 59 59 55 51 50 54 54 51 37 45 50 53 54 55 49 54 55 54 46 46 43 42 49 49 42 43 45 42 47 47 45 37 36 41 36 42 48 48 52 56 59 61 62
58 58 59 60 51 51 54 54 52 50 29 48 49 57 53 50 50 49 52 50 45 44 44 44 43 41 41 46 47 44 45 44 39 35 32 35 32 38 46 46 52 59 61 62 65
58 58 58 56 54 56 56 55 53 41 31 45 48 45 46 47 47 48 48 51 48 44 43 44 45 47 47 45 46 44 41 38 33 33 28 39 37 39 40 46 49 53 55 58 59
56 56 56 58 54 57 56 53 41 34 48 43 43 44 43 42 44 44 42 41 40 35 35 39 42 44 47 42 41 43 37 28 26 23 32 38 35 47 48 53 51 54 57 58 57
56 56 56 57 55 55 52 44 34 42 44 47 46 43 43 45 45 42 38 37 41 37 35 35 38 43 45 45 42 38 40 29 19 26 37 33 30 48 51 54 53 52 51 51 52
56 54 54 55 55 54 48 38 40 43 49 47 49 43 40 43 46 40 36 37 42 43 40 37 36 42 43 44 48 36 34 42 30 16 21 39 40 52 54 47 48 50 49 49 50
49 50 51 56 55 51 43 40 43 49 49 48 41 45 36 40 40 41 40 40 42 44 47 43 38 43 38 39 39 41 41 31 29 20 18 31 32 38 46 50 51 50 52 52 52
47 44 50 55 55 46 37 41 46 52 52 47 44 43 43 43 45 44 45 45 47 45 45 46 42 40 40 37 41 34 33 35 36 33 30 27 34 53 53 56 52 52 49 49 51
44 37 51 55 42 42 40 45 47 47 51 48 46 46 43 43 41 42 42 46 49 48 43 45 38 30 36 46 42 41 41 41 35 31 35 35 37 52 56 57 55 56 51 50 50
41 41 51 49 37 38 42 42 46 45 45 45 44 46 48 43 37 42 42 48 51 48 43 43 35 30 31 35 35 33 38 41 42 38 29 25 31 52 54 54 57 56 55 49 50
37 33 42 45 46 41 40 41 41 45 44 46 44 46 42 39 43 39 40 44 43 43 44 45 39 33 30 35 40 33 35 37 38 32 33 35 38 44 48 50 54 56 59 55 54
34 31 37 33 38 40 41 39 37 38 43 45 41 41 40 35 36 36 35 35 39 40 40 37 31 34 35 34 34 34 33 35 35 37 32 36 37 44 48 50 54 56 57 53 45
31 31 35 32 35 33 36 37 37 38 40 39 36 33 34 32 32 29 27 30 29 32 32 35 27 31 27 33 35 33 35 35 34 33 34 38 38 45 45 39 38 41 39 38 37
34 35 35 31 29 26 30 32 33 33 36 37 31 28 28 31 32 33 35 33 32 29 28 28 27 24 20 30 29 24 31 35 36 40 36 29 29 29 29 30 32 32 32 33 35